When you browse on this site, cookies collect data to enhance your experience and personalize the content and advertising you see.
Visit our Privacy Policy to learn more. By continuing to use the site, you agree to this use of cookies and data.
  • In Switzerland
  • List of Countries
  • For 7 days
  • Water Temperature
  • Satellite Maps
  • Weather Map
  • Weather Widgets
  • user-avatar
    Login

    Hourly Weather Kin-Grust

    Today, 18 June, Tuesday

    Time Temperature Precipitation Wind Pressure Humidity
    00:00 +18°C° 0 mm 1 mps 741 mmHg 83%
    01:00 +18°C° 0 mm 1 mps 741 mmHg 85%
    02:00 +16°C° 0 mm 1 mps 741 mmHg 86%
    03:00 +16°C° 0 mm 1 mps 741 mmHg 84%
    04:00 +17°C° 0 mm 2 mps 741 mmHg 84%
    05:00 +17°C° 0 mm 2 mps 741 mmHg 85%
    06:00 +18°C° 0 mm 2 mps 741 mmHg 85%
    07:00 +19°C° 0.1 mm 2 mps 741 mmHg 81%
    08:00 +21°C° 0.1 mm 2 mps 741 mmHg 78%
    09:00 +22°C° 0.1 mm 3 mps 741 mmHg 74%
    10:00 +24°C° 0.9 mm 3 mps 740 mmHg 73%
    11:00 +25°C° 0.9 mm 3 mps 740 mmHg 72%
    12:00 +25°C° 0.9 mm 4 mps 740 mmHg 70%
    13:00 +25°C° 1.7 mm 4 mps 740 mmHg 71%
    14:00 +25°C° 1.7 mm 3 mps 740 mmHg 72%
    15:00 +26°C° 1.7 mm 3 mps 740 mmHg 73%
    16:00 +25°C° 0.8 mm 3 mps 739 mmHg 74%
    17:00 +25°C° 0.8 mm 3 mps 739 mmHg 76%
    18:00 +25°C° 0.8 mm 3 mps 739 mmHg 78%
    19:00 +23°C° 0.1 mm 2 mps 739 mmHg 82%
    20:00 +21°C° 0.1 mm 2 mps 739 mmHg 86%
    21:00 +19°C° 0.1 mm 2 mps 739 mmHg 91%
    22:00 +19°C° 0 mm 2 mps 739 mmHg 90%
    23:00 +18°C° 0 mm 2 mps 740 mmHg 89%

    Tomorrow, 19 June, Wednesday

    Time Temperature Precipitation Wind Pressure Humidity
    00:00 +17°C° 0 mm 2 mps 740 mmHg 88%
    01:00 +17°C° 0 mm 2 mps 740 mmHg 89%
    02:00 +17°C° 0 mm 3 mps 740 mmHg 90%
    03:00 +16°C° 0 mm 3 mps 740 mmHg 90%
    04:00 +16°C° 0 mm 3 mps 741 mmHg 90%
    05:00 +17°C° 0 mm 3 mps 741 mmHg 89%
    06:00 +17°C° 0 mm 3 mps 741 mmHg 89%
    07:00 +18°C° 0 mm 3 mps 741 mmHg 84%
    08:00 +20°C° 0 mm 3 mps 742 mmHg 80%
    09:00 +21°C° 0 mm 3 mps 742 mmHg 75%
    10:00 +22°C° 0.1 mm 3 mps 742 mmHg 71%
    11:00 +24°C° 0.1 mm 3 mps 742 mmHg 66%
    12:00 +25°C° 0.1 mm 3 mps 742 mmHg 62%
    13:00 +25°C° 0 mm 3 mps 742 mmHg 61%
    14:00 +26°C° 0 mm 4 mps 742 mmHg 59%
    15:00 +26°C° 0 mm 4 mps 742 mmHg 58%
    16:00 +25°C° 0 mm 3 mps 742 mmHg 62%
    17:00 +25°C° 0 mm 3 mps 742 mmHg 66%
    18:00 +25°C° 0 mm 3 mps 742 mmHg 70%
    19:00 +23°C° 0 mm 2 mps 742 mmHg 73%
    20:00 +20°C° 0 mm 2 mps 742 mmHg 76%
    21:00 +18°C° 0 mm 2 mps 742 mmHg 79%
    22:00 +18°C° 0 mm 2 mps 742 mmHg 78%
    23:00 +17°C° 0 mm 2 mps 742 mmHg 77%

    Day after tomorrow, 20 June, Thursday

    Time Temperature Precipitation Wind Pressure Humidity
    00:00 +17°C° 0 mm 2 mps 743 mmHg 75%
    01:00 +16°C° 0 mm 2 mps 743 mmHg 77%
    02:00 +16°C° 0 mm 2 mps 743 mmHg 78%
    03:00 +16°C° 0 mm 2 mps 743 mmHg 79%
    04:00 +16°C° 0 mm 2 mps 743 mmHg 81%
    05:00 +18°C° 0 mm 1 mps 743 mmHg 82%
    06:00 +19°C° 0 mm 1 mps 744 mmHg 83%
    07:00 +20°C° 0 mm 1 mps 744 mmHg 78%
    08:00 +22°C° 0 mm 1 mps 744 mmHg 72%
    09:00 +24°C° 0 mm 1 mps 744 mmHg 67%
    10:00 +25°C° 0 mm 1 mps 744 mmHg 62%
    11:00 +25°C° 0 mm 1 mps 744 mmHg 58%
    12:00 +26°C° 0 mm 2 mps 744 mmHg 53%
    13:00 +27°C° 0 mm 1 mps 744 mmHg 52%
    14:00 +27°C° 0 mm 1 mps 744 mmHg 51%
    15:00 +27°C° 0 mm 1 mps 743 mmHg 49%
    16:00 +27°C° 0 mm 1 mps 743 mmHg 53%
    17:00 +27°C° 0 mm 1 mps 743 mmHg 56%
    18:00 +27°C° 0 mm 1 mps 743 mmHg 59%
    19:00 +25°C° 0 mm 1 mps 743 mmHg 63%
    20:00 +23°C° 0 mm 1 mps 743 mmHg 67%
    21:00 +21°C° 0 mm 1 mps 743 mmHg 71%
    22:00 +20°C° 0 mm 1 mps 743 mmHg 72%
    23:00 +20°C° 0 mm 1 mps 743 mmHg 73%

    21 June, Friday

    Time Temperature Precipitation Wind Pressure Humidity
    00:00 +19°C° 0 mm 1 mps 744 mmHg 75%
    01:00 +19°C° 0 mm 1 mps 744 mmHg 75%
    02:00 +18°C° 0 mm 1 mps 744 mmHg 76%
    03:00 +18°C° 0 mm 1 mps 744 mmHg 77%
    04:00 +17°C° 0 mm 0 mps 744 mmHg 78%
    05:00 +17°C° 0 mm 0 mps 744 mmHg 78%
    06:00 +18°C° 0 mm 0 mps 744 mmHg 79%
    07:00 +20°C° 0 mm 0 mps 744 mmHg 74%
    08:00 +23°C° 0 mm 1 mps 745 mmHg 70%
    09:00 +24°C° 0 mm 1 mps 745 mmHg 65%
    10:00 +25°C° 0 mm 1 mps 745 mmHg 61%
    11:00 +26°C° 0 mm 1 mps 745 mmHg 57%
    12:00 +27°C° 0 mm 1 mps 745 mmHg 53%
    13:00 +27°C° 0 mm 1 mps 745 mmHg 53%
    14:00 +27°C° 0 mm 1 mps 745 mmHg 53%
    15:00 +27°C° 0 mm 1 mps 744 mmHg 53%
    16:00 +27°C° 0 mm 1 mps 744 mmHg 55%
    17:00 +27°C° 0 mm 1 mps 744 mmHg 58%
    18:00 +27°C° 0 mm 1 mps 744 mmHg 60%
    19:00 +25°C° 0 mm 1 mps 744 mmHg 63%
    20:00 +24°C° 0 mm 1 mps 744 mmHg 66%
    21:00 +22°C° 0 mm 1 mps 744 mmHg 69%
    22:00 +21°C° 0 mm 1 mps 744 mmHg 70%
    23:00 +21°C° 0 mm 1 mps 744 mmHg 71%

    22 June, Saturday

    Time Temperature Precipitation Wind Pressure Humidity
    00:00 +20°C° 0 mm 1 mps 744 mmHg 72%
    01:00 +20°C° 0 mm 1 mps 744 mmHg 72%
    02:00 +19°C° 0 mm 1 mps 744 mmHg 73%
    03:00 +18°C° 0 mm 2 mps 744 mmHg 74%
    04:00 +19°C° 0 mm 2 mps 744 mmHg 76%
    05:00 +19°C° 0 mm 2 mps 744 mmHg 79%
    06:00 +19°C° 0 mm 2 mps 744 mmHg 81%
    07:00 +21°C° 0 mm 2 mps 745 mmHg 77%
    08:00 +24°C° 0 mm 2 mps 745 mmHg 73%
    09:00 +25°C° 0 mm 2 mps 745 mmHg 68%
    10:00 +26°C° 0 mm 3 mps 745 mmHg 64%
    11:00 +27°C° 0 mm 3 mps 745 mmHg 60%
    12:00 +28°C° 0 mm 3 mps 745 mmHg 55%
    13:00 +28°C° 0 mm 3 mps 744 mmHg 56%
    14:00 +28°C° 0 mm 4 mps 744 mmHg 57%
    15:00 +28°C° 0 mm 4 mps 744 mmHg 57%
    16:00 +28°C° 0 mm 3 mps 744 mmHg 61%
    17:00 +28°C° 0 mm 3 mps 744 mmHg 65%
    18:00 +27°C° 0 mm 2 mps 743 mmHg 69%
    19:00 +26°C° 0 mm 2 mps 743 mmHg 72%
    20:00 +24°C° 0 mm 2 mps 744 mmHg 75%
    21:00 +23°C° 0 mm 2 mps 744 mmHg 78%
    22:00 +21°C° 0 mm 2 mps 744 mmHg 78%
    23:00 +21°C° 0 mm 2 mps 744 mmHg 78%

    23 June, Sunday

    Time Temperature Precipitation Wind Pressure Humidity
    00:00 +20°C° 0 mm 2 mps 744 mmHg 79%
    01:00 +20°C° 0 mm 2 mps 744 mmHg 80%
    02:00 +19°C° 0 mm 2 mps 744 mmHg 82%
    03:00 +19°C° 0 mm 2 mps 744 mmHg 83%
    04:00 +20°C° 0 mm 2 mps 744 mmHg 84%
    05:00 +20°C° 0 mm 2 mps 744 mmHg 84%
    06:00 +20°C° 0 mm 2 mps 744 mmHg 85%
    07:00 +23°C° 0 mm 2 mps 744 mmHg 81%
    08:00 +24°C° 0 mm 3 mps 744 mmHg 77%
    09:00 +26°C° 0 mm 3 mps 744 mmHg 73%
    10:00 +27°C° 0.2 mm 3 mps 744 mmHg 69%
    11:00 +28°C° 0.2 mm 3 mps 744 mmHg 66%
    12:00 +29°C° 0.2 mm 3 mps 744 mmHg 62%
    13:00 +29°C° 0.1 mm 3 mps 744 mmHg 61%
    14:00 +29°C° 0.1 mm 4 mps 744 mmHg 59%
    15:00 +30°C° 0.1 mm 4 mps 744 mmHg 58%
    16:00 +29°C° 0.3 mm 3 mps 744 mmHg 63%
    17:00 +29°C° 0.3 mm 3 mps 744 mmHg 67%
    18:00 +28°C° 0.3 mm 2 mps 743 mmHg 72%
    19:00 +27°C° 0.1 mm 2 mps 743 mmHg 74%
    20:00 +25°C° 0.1 mm 2 mps 743 mmHg 77%
    21:00 +24°C° 0.1 mm 2 mps 743 mmHg 79%
    22:00 +23°C° 0 mm 2 mps 743 mmHg 81%
    23:00 +21°C° 0 mm 2 mps 743 mmHg 82%
    Show more